Location: Unspecified
(41.1637°N, 24.2901°E)
Time: 22:01:37
(UTC+01:00)

ISS - Pass Details

Date: 12 November 2019
Orbit: 412 x 421 km, 51.6° (Epoch: 15 November)

Event Time Altitude Azimuth Distance (km) Brightness Sun altitude
Exits shadow 05:01:28 21° 269° (W) 1,003 -2.4 -12.5°
Maximum altitude 05:02:58 30° 224° (SW) 770 -2.7 -12.2°
Drops below altitude 10° 05:05:58 10° 161° (SSE) 1,492 -0.5 -11.7°
Sets 05:08:11 0° 150° (SSE) 2,349 0.7 -11.3°
